星链-3114 (STARLINK-3114 )

导读

STARLINK-3114是由美国于2021年11月13日发射的星链卫星,隶属于SpaceX公司的星链互联网星座项目。星链计划旨在构建全球卫星互联网,为全球偏远地区等提供高速网络服务,该卫星承担低轨通信任务,是星链星座实现全球覆盖布局的重要组成部分。

Basic Information
目录编号:
49426
目录名称:
STARLINK-3114
国际标识:
2021-104U
轨道中心:
EARTH
卫星名称:
星链-3114
卫星全名:
星链-3114 (STARLINK-3114 )
卫星状态:
在轨 (已飞行1763 天)
发射日期:
2021-11-13 UTC
国别 :
美国 (US)
星等 :
--
This satellite is enrolled in the Space Conjunction Data Service (SCDS) and the current flight risk assessment level is: No High Risk
Orbit Information
数据来源 国际轨道数据
星历时间: 2026-09-11T07:48:27+0800
19小时前
查看轨道信息
半长轴: 6840.87km
偏心率: 0.0001436
轨道倾角: 53.160°
近地点辐角 94.017°
升交点赤经 105.823°
平近点角 266.100°
近地点: 461.75km
远地点: 463.716km
周期: 93.848分钟
每日圈数: 15.343902
Detailed Information
固有亮度:
5
最大亮度:
2.5
卫星平台:
Starlink v1.5
覆盖范围:
全球
运营商:
太空探索技术公司
运营商所在国:
美国
制造商(研发单位):
太空探索技术公司
制造商所在国:
美国
使用方式:
暂无
Satellite Introduction
星链(Starlink)计划是由太空探索技术公司(SpaceX)提出的一个巨型低轨卫星互联网星座项目,计划在2019年至2024年间在太空搭建由约1.2万颗卫星组成的“星链”网络,其中1584颗将部署在地球上空550千米处的近地轨道,并从2020年开始工作。该卫星仍在工作。
2D Orbit Map
3D Orbit Map
Orbit Altitude Analysis Chart
Orbit Inclination Analysis Chart
Orbit Comprehensive Analysis Chart
View Comprehensive Chart
Conjunction Data List
Event ID Objects TCA Miss Dist (km) Collision Risk Probability Collision Risk Index (CRI) Action
CDM_260913-042704-942606-809121
2026-09-13T
04:27:52+0000
0.706 km
远距离
5.126306E-5 中风险 0.69
CDM_260913-034104-942606-473621
2026-09-13T
03:41:25+0000
0.880 km
远距离
2.433905E-5 中风险 0.63
CDM_260913-165804-942606-473621
2026-09-13T
16:58:39+0000
1.044 km
极远距离
1.354349E-5 中风险 0.58
CDM_260912-181804-942606-809121
2026-09-12T
18:18:13+0000
1.252 km
极远距离
7.510483E-6 低风险 0.53
CDM_260913-051504-942606-473621
2026-09-13T
05:15:12+0000
1.279 km
极远距离
6.726475E-6 低风险 0.52
CDM_260913-183204-942606-473621
2026-09-13T
18:32:26+0000
1.614 km
极远距离
3.168164E-6 低风险 0.45
CDM_260912-195204-942606-809121
2026-09-12T
19:52:01+0000
1.989 km
极远距离
1.847758E-6 低风险 0.4
CDM_260913-044504-942606-875321
SL-4 R/B (68753)
2026-09-13T
04:45:11+0000
2.048 km
极远距离
1.754229E-6 低风险 0.4
CDM_260909-102704-942605-230121
2026-09-09T
10:27:18+0000
2.760 km
极远距离
1.262898E-6 低风险 0.37
CDM_260913-020704-942606-473621
2026-09-13T
02:07:37+0000
2.966 km
极远距离
8.777802E-7 极低风险 0.34
Miss Distance Evolution Trend with All Objects
Collision Probability Evolution Trend with All Objects